Flag for U.S.A. Weather past 2 weeks in Chesapeake, Virginia, U.S.A.

Now
63 °F

Passing clouds.


Feels Like: 63 °F
Forecast: 53 / 61 °F
Wind: No wind

Location: Chesapeake Municipal Airport

Current Time: Oct 21, 2014 at 8:28:01 PM

Latest Report: Oct 21, 2014 at 7:55 PM


Visibility: 10 mi

Pressure: 29.85 "Hg

Humidity: 83%

Dew point: 57 °F

Location of ChesapeakeLocation

Historic Weather in Chesapeake — Graph

°F

Chesapeake temperature yesterday

Maximum temperature yesterday: 72 °F (at 3:35 PM)
Minimum temperature yesterday: 39 °F (at 4:15 AM)
Average temperature yesterday: 54 °F

Past Weeks' High & Low Weather Summary

 TemperatureHumidityPressure
High84 °F (Oct 8, 2:55 PM)100% (Oct 7, 6:35 AM)30.28 "Hg (Oct 7, 6:35 AM)
Low39 °F (Oct 20, 4:15 AM)30% (Oct 19, 3:55 PM)29.69 "Hg (Oct 18, 2:15 PM)
Average67 °F76%30.01 "Hg
* Reported Oct 6 7:15 PM — Oct 21 7:35 PM, Chesapeake, Weather by CustomWeather, © 2014

Note: Actual official high and low records may vary slightly from our data, if they occured in-between our weather recording intervals... More about our weather records

Advertising

Chesapeake weather history for previous 24 hours

 ConditionsComfort  
Time TempWeatherWind HumidityBarometerVisibility
7:35 PM
Oct 21
64 °FOvercast.No wind78%29.84 "Hg10 mi
7:15 PM64 °FOvercast.No wind78%29.85 "Hg10 mi
6:55 PM64 °FMore clouds than sun.No wind78%29.84 "Hg10 mi
6:35 PM64 °FBroken clouds.No wind78%29.84 "Hg10 mi
6:15 PM66 °FScattered clouds.No wind73%29.83 "Hg10 mi
5:55 PM73 °FScattered clouds.No wind50%29.83 "Hg10 mi
5:35 PM73 °FSunny.3 mph50%29.82 "Hg10 mi
5:15 PM73 °FScattered clouds.No wind47%29.82 "Hg10 mi
4:55 PM75 °FPartly sunny.5 mph44%29.82 "Hg10 mi
4:35 PM75 °FScattered clouds.6 mph41%29.81 "Hg10 mi
4:15 PM75 °FScattered clouds.7 mph44%29.81 "Hg10 mi
3:55 PM75 °FSunny.7 mph44%29.81 "Hg10 mi
3:35 PM75 °FSunny.6 mph44%29.81 "Hg10 mi
3:15 PM75 °FSunny.6 mph41%29.81 "Hg10 mi
2:55 PM75 °FSunny.8 mph41%29.82 "Hg10 mi
2:35 PM75 °FSunny.9 mph47%29.82 "Hg10 mi
2:15 PM75 °FSunny.7 mph47%29.82 "Hg10 mi
1:55 PM75 °FSunny.8 mph44%29.83 "Hg10 mi
1:35 PM75 °FSunny.9 mph44%29.84 "Hg10 mi
1:15 PM73 °FSunny.7 mph50%29.84 "Hg10 mi
12:55 PM75 °FSunny.8 mph50%29.86 "Hg10 mi
12:35 PM73 °FScattered clouds.6 mph53%29.87 "Hg10 mi
12:15 PM73 °FSunny.7 mph53%29.87 "Hg10 mi
11:55 AM73 °FSunny.7 mph53%29.88 "Hg10 mi
11:35 AM73 °FSunny.7 mph57%29.88 "Hg10 mi
11:15 AM72 °FSunny.6 mph61%29.88 "Hg10 mi
10:55 AM72 °FSunny.5 mph61%29.89 "Hg10 mi
10:35 AM70 °FSunny.6 mph64%29.90 "Hg10 mi
10:15 AM70 °FScattered clouds.6 mph64%29.90 "Hg10 mi
9:55 AM68 °FScattered clouds.5 mph69%29.91 "Hg10 mi
9:35 AM66 °FScattered clouds.3 mph78%29.91 "Hg10 mi
9:15 AM64 °FScattered clouds.3 mph83%29.92 "Hg10 mi
8:55 AM63 °FScattered clouds.No wind94%29.93 "Hg10 mi
8:35 AM61 °FScattered clouds.No wind94%29.93 "Hg10 mi
8:15 AM59 °FPassing clouds.No wind94%29.93 "Hg10 mi
7:55 AM57 °FPassing clouds.No wind100%29.92 "Hg10 mi
7:35 AM57 °FPassing clouds.3 mph94%29.93 "Hg10 mi
7:15 AM59 °FPassing clouds.No wind94%29.92 "Hg10 mi
6:55 AM57 °FPassing clouds.No wind100%29.92 "Hg10 mi
6:35 AM59 °FPassing clouds.No wind94%29.92 "Hg10 mi
6:15 AM57 °FClear.3 mph100%29.92 "Hg10 mi
5:55 AM59 °FClear.3 mph94%29.92 "Hg10 mi
5:35 AM57 °FClear.3 mph100%29.91 "Hg10 mi
5:15 AM57 °FClear.No wind100%29.91 "Hg10 mi
4:55 AM57 °FClear.No wind94%29.91 "Hg10 mi
4:35 AM55 °FClear.No wind100%29.91 "Hg10 mi
4:15 AM55 °FClear.No wind100%29.91 "Hg10 mi
3:55 AM55 °FClear.No wind100%29.92 "Hg10 mi
3:15 AM55 °FClear.No wind94%29.93 "Hg10 mi
2:55 AM54 °FClear.No wind100%29.94 "Hg10 mi
2:15 AM54 °FClear.No wind100%29.96 "Hg10 mi
1:55 AM54 °FClear.No wind94%29.96 "Hg10 mi
1:15 AM54 °FPassing clouds.No wind94%29.97 "Hg10 mi
12:55 AM54 °FClear.No wind94%29.98 "Hg10 mi
12:15 AM54 °FClear.No wind94%29.98 "Hg10 mi
11:55 PM
Oct 20
55 °FClear.No wind94%29.99 "Hg10 mi
11:15 PM54 °FPassing clouds.No wind94%30.00 "Hg10 mi
10:55 PM52 °FPassing clouds.No wind100%30.01 "Hg10 mi
10:35 PM54 °FClear.No wind94%30.01 "Hg10 mi
10:15 PM54 °FClear.No wind94%30.01 "Hg10 mi
9:55 PM52 °FClear.No wind94%30.02 "Hg10 mi
9:15 PM54 °FClear.No wind94%30.02 "Hg10 mi
8:55 PM55 °FClear.No wind88%30.02 "Hg10 mi
8:35 PM55 °FClear.No wind88%30.02 "Hg10 mi
8:15 PM55 °FClear.No wind88%30.02 "Hg10 mi
Weather by CustomWeather, © 2014

See weather overviewHow to use our weather pages